Location: Devargunta
(16.7631°N, 80.9077°E)
Time: 19:37:33
(UTC+00:00)

Hubble Space Telescope - Pass Details

Date: 19 January 2021
Orbit: 535 x 539 km, 28.5° (Epoch: 04 March)

Event Time Altitude Azimuth Distance (km) Brightness Sun altitude
Rises 13:25:30 0° 287° (WNW) 2,673 5.3 -14.4°
Reaches altitude 10° 13:28:19 10° 306° (NW) 1,782 3.9 -15.1°
Maximum altitude 13:31:13 18° 351° (N) 1,339 2.7 -15.7°
Enters shadow 13:32:45 15° 19° (NNE) 1,476 2.7 -16.1°
